Time,TemperatureF,DewpointF,PressureIn,WindDirection,WindDirectionDegrees,WindSpeedMPH,WindSpeedGustMPH,Humidity,HourlyPrecipIn,Conditions,Clouds,dailyrainin,SoftwareType,DateUTC
2013-10-25 00:12:00,53.0,52.0,-100.00,North,356,0.0,0.0,97,0.00,,,0.00,,2013-10-25 05:12:00,
2013-10-25 00:21:00,53.0,52.0,-100.00,North,356,0.0,0.0,97,0.00,,,0.00,,2013-10-25 05:21:00,
2013-10-25 00:32:00,53.0,52.0,-100.00,North,356,0.0,0.0,97,0.00,,,0.00,,2013-10-25 05:32:00,
2013-10-25 00:42:00,53.0,52.0,-100.00,North,356,0.0,0.0,97,0.00,,,0.00,,2013-10-25 05:42:00,
2013-10-25 01:11:00,53.0,52.0,-100.00,NNW,347,0.0,0.0,98,0.00,,,-99.99,,2013-10-25 06:11:00,
2013-10-25 01:21:00,53.0,52.0,-100.00,NNW,347,0.0,0.0,98,0.00,,,-99.99,,2013-10-25 06:21:00,
2013-10-25 01:31:00,53.0,52.0,-100.00,NNW,347,0.0,0.0,98,0.00,,,-99.99,,2013-10-25 06:31:00,
2013-10-25 01:41:00,53.0,52.0,-100.00,NNW,347,0.0,0.0,98,0.00,,,-99.99,,2013-10-25 06:41:00,
2013-10-25 02:11:00,53.0,52.0,-100.00,NW,321,0.0,2.0,98,0.00,,,0.00,,2013-10-25 07:11:00,
2013-10-25 02:21:00,53.0,52.0,-100.00,NW,321,0.0,2.0,98,0.00,,,0.00,,2013-10-25 07:21:00,
2013-10-25 02:31:00,53.0,52.0,-100.00,NW,321,0.0,2.0,98,0.00,,,0.00,,2013-10-25 07:31:00,
2013-10-25 02:41:00,53.0,52.0,-100.00,NW,321,0.0,2.0,98,0.00,,,0.00,,2013-10-25 07:41:00,
2013-10-25 03:10:00,53.0,52.0,-100.00,ENE,58,1.0,5.0,98,0.00,,,0.00,,2013-10-25 08:10:00,
2013-10-25 03:21:00,53.0,52.0,-100.00,ENE,58,1.0,5.0,98,0.00,,,0.00,,2013-10-25 08:21:00,
2013-10-25 03:31:00,53.0,52.0,-100.00,ENE,58,1.0,5.0,98,0.00,,,0.00,,2013-10-25 08:31:00,
2013-10-25 03:41:00,53.0,52.0,-100.00,ENE,58,1.0,5.0,98,0.00,,,0.00,,2013-10-25 08:41:00,
2013-10-25 04:21:00,53.0,52.0,-100.00,North,350,1.0,4.0,98,0.00,,,0.00,,2013-10-25 09:21:00,
2013-10-25 04:32:00,53.0,52.0,-100.00,North,350,1.0,4.0,98,0.00,,,0.00,,2013-10-25 09:32:00,
2013-10-25 04:42:00,53.0,52.0,-100.00,North,350,1.0,4.0,98,0.00,,,0.00,,2013-10-25 09:42:00,
2013-10-25 05:11:00,51.0,50.0,-100.00,NNE,25,1.0,4.0,98,0.00,,,0.00,,2013-10-25 10:11:00,
2013-10-25 05:22:00,51.0,50.0,-100.00,NNE,25,1.0,4.0,98,0.00,,,0.00,,2013-10-25 10:22:00,
2013-10-25 05:32:00,51.0,50.0,-100.00,NNE,25,1.0,4.0,98,0.00,,,0.00,,2013-10-25 10:32:00,
2013-10-25 05:41:00,51.0,50.0,-100.00,NNE,25,1.0,4.0,98,0.00,,,0.00,,2013-10-25 10:41:00,
2013-10-25 06:11:00,50.0,49.0,-100.00,NNE,31,1.0,4.0,97,0.00,,,0.00,,2013-10-25 11:11:00,
2013-10-25 06:21:00,50.0,49.0,-100.00,NNE,31,1.0,4.0,97,0.00,,,0.00,,2013-10-25 11:21:00,
2013-10-25 06:32:00,50.0,49.0,-100.00,NNE,31,1.0,4.0,97,0.00,,,0.00,,2013-10-25 11:32:00,
2013-10-25 06:41:00,50.0,49.0,-100.00,NNE,31,1.0,4.0,97,0.00,,,0.00,,2013-10-25 11:41:00,
2013-10-25 07:11:00,49.0,48.0,-100.00,East,80,2.0,5.0,95,0.00,,,0.00,,2013-10-25 12:11:00,
2013-10-25 07:21:00,49.0,48.0,-100.00,East,80,2.0,5.0,95,0.00,,,0.00,,2013-10-25 12:21:00,
2013-10-25 07:31:00,49.0,48.0,-100.00,East,80,2.0,5.0,95,0.00,,,0.00,,2013-10-25 12:31:00,
2013-10-25 07:41:00,49.0,48.0,-100.00,East,80,2.0,5.0,95,0.00,,,0.00,,2013-10-25 12:41:00,
2013-10-25 08:11:00,49.0,47.0,-100.00,NE,54,2.0,6.0,93,0.00,,,0.00,,2013-10-25 13:11:00,
2013-10-25 08:21:00,49.0,47.0,-100.00,NE,54,2.0,6.0,93,0.00,,,0.00,,2013-10-25 13:21:00,
2013-10-25 08:32:00,49.0,47.0,-100.00,NE,54,2.0,6.0,93,0.00,,,0.00,,2013-10-25 13:32:00,
2013-10-25 08:41:00,49.0,47.0,-100.00,NE,54,2.0,6.0,93,0.00,,,0.00,,2013-10-25 13:41:00,
2013-10-25 09:11:00,53.0,48.0,-100.00,ESE,115,3.0,7.0,84,0.00,,,0.00,,2013-10-25 14:11:00,
2013-10-25 09:22:00,53.0,48.0,-100.00,ESE,115,3.0,7.0,84,0.00,,,0.00,,2013-10-25 14:22:00,
2013-10-25 09:32:00,53.0,48.0,-100.00,ESE,115,3.0,7.0,84,0.00,,,0.00,,2013-10-25 14:32:00,
2013-10-25 09:42:00,53.0,48.0,-100.00,ESE,115,3.0,7.0,84,0.00,,,0.00,,2013-10-25 14:42:00,
2013-10-25 10:21:00,58.0,46.0,-100.00,ENE,73,5.0,10.0,64,0.00,,,0.00,,2013-10-25 15:21:00,
2013-10-25 10:33:00,58.0,46.0,-100.00,ENE,73,5.0,10.0,64,0.00,,,0.00,,2013-10-25 15:33:00,
2013-10-25 10:43:00,58.0,46.0,-100.00,ENE,73,5.0,10.0,64,0.00,,,0.00,,2013-10-25 15:43:00,
2013-10-25 11:23:00,62.0,44.0,-100.00,East,98,4.0,11.0,51,0.00,,,0.00,,2013-10-25 16:23:00,
2013-10-25 11:33:00,62.0,44.0,-100.00,East,98,4.0,11.0,51,0.00,,,0.00,,2013-10-25 16:33:00,
2013-10-25 11:43:00,62.0,44.0,-100.00,East,98,4.0,11.0,51,0.00,,,0.00,,2013-10-25 16:43:00,
2013-10-25 12:23:00,63.0,39.0,-100.00,ESE,110,5.0,12.0,41,0.00,,,0.00,,2013-10-25 17:23:00,
2013-10-25 12:33:00,63.0,39.0,-100.00,ESE,110,5.0,12.0,41,0.00,,,0.00,,2013-10-25 17:33:00,
2013-10-25 12:43:00,63.0,39.0,-100.00,ESE,110,5.0,12.0,41,0.00,,,0.00,,2013-10-25 17:43:00,
2013-10-25 13:21:00,66.0,39.0,-100.00,SE,129,4.0,10.0,37,0.00,,,0.00,,2013-10-25 18:21:00,
2013-10-25 13:32:00,66.0,39.0,-100.00,SE,129,4.0,10.0,37,0.00,,,0.00,,2013-10-25 18:32:00,
2013-10-25 13:42:00,66.0,39.0,-100.00,SE,129,4.0,10.0,37,0.00,,,0.00,,2013-10-25 18:42:00,
2013-10-25 14:11:00,68.0,38.0,-100.00,NNE,23,3.0,10.0,33,0.00,,,0.00,,2013-10-25 19:11:00,
2013-10-25 14:22:00,68.0,38.0,-100.00,NNE,23,3.0,10.0,33,0.00,,,0.00,,2013-10-25 19:22:00,
2013-10-25 14:32:00,68.0,38.0,-100.00,NNE,23,3.0,10.0,33,0.00,,,0.00,,2013-10-25 19:32:00,
2013-10-25 14:42:00,68.0,38.0,-100.00,NNE,23,3.0,10.0,33,0.00,,,0.00,,2013-10-25 19:42:00,
2013-10-25 15:22:00,70.0,37.0,-100.00,East,79,4.0,10.0,30,0.00,,,0.00,,2013-10-25 20:22:00,
2013-10-25 15:32:00,70.0,37.0,-100.00,East,79,4.0,10.0,30,0.00,,,0.00,,2013-10-25 20:32:00,
2013-10-25 15:42:00,70.0,37.0,-100.00,East,79,4.0,10.0,30,0.00,,,0.00,,2013-10-25 20:42:00,
2013-10-25 16:11:00,70.0,37.0,-100.00,East,95,3.0,8.0,30,0.00,,,0.00,,2013-10-25 21:11:00,
2013-10-25 16:22:00,70.0,37.0,-100.00,East,95,3.0,8.0,30,0.00,,,0.00,,2013-10-25 21:22:00,
2013-10-25 16:34:00,70.0,37.0,-100.00,East,95,3.0,8.0,30,0.00,,,0.00,,2013-10-25 21:34:00,
2013-10-25 16:43:00,70.0,37.0,-100.00,East,95,3.0,8.0,30,0.00,,,0.00,,2013-10-25 21:43:00,
2013-10-25 17:13:00,68.0,37.0,-100.00,ENE,67,3.0,8.0,32,0.00,,,0.00,,2013-10-25 22:13:00,
2013-10-25 17:23:00,68.0,37.0,-100.00,ENE,67,3.0,8.0,32,0.00,,,0.00,,2013-10-25 22:23:00,
2013-10-25 17:34:00,68.0,37.0,-100.00,ENE,67,3.0,8.0,32,0.00,,,0.00,,2013-10-25 22:34:00,
2013-10-25 17:42:00,68.0,37.0,-100.00,ENE,67,3.0,8.0,32,0.00,,,0.00,,2013-10-25 22:42:00,
2013-10-25 18:12:00,65.0,39.0,-100.00,ESE,114,2.0,7.0,38,0.00,,,-99.99,,2013-10-25 23:12:00,
2013-10-25 18:22:00,65.0,39.0,-100.00,ESE,114,2.0,7.0,38,0.00,,,-99.99,,2013-10-25 23:22:00,
2013-10-25 18:34:00,65.0,39.0,-100.00,ESE,114,2.0,7.0,38,0.00,,,-99.99,,2013-10-25 23:34:00,
2013-10-25 18:42:00,65.0,39.0,-100.00,ESE,114,2.0,7.0,38,0.00,,,-99.99,,2013-10-25 23:42:00,
2013-10-25 19:22:00,52.0,41.0,-100.00,WNW,302,0.0,2.0,65,0.00,,,0.00,,2013-10-26 00:22:00,
2013-10-25 19:32:00,52.0,41.0,-100.00,WNW,302,0.0,2.0,65,0.00,,,0.00,,2013-10-26 00:32:00,
2013-10-25 19:42:00,52.0,41.0,-100.00,WNW,302,0.0,2.0,65,0.00,,,0.00,,2013-10-26 00:42:00,
2013-10-25 20:12:00,49.0,41.0,-100.00,NNW,336,1.0,2.0,75,0.00,,,0.00,,2013-10-26 01:12:00,
2013-10-25 20:22:00,49.0,41.0,-100.00,NNW,336,1.0,2.0,75,0.00,,,0.00,,2013-10-26 01:22:00,
2013-10-25 20:32:00,49.0,41.0,-100.00,NNW,336,1.0,2.0,75,0.00,,,0.00,,2013-10-26 01:32:00,
2013-10-25 20:42:00,49.0,41.0,-100.00,NNW,336,1.0,2.0,75,0.00,,,0.00,,2013-10-26 01:42:00,
2013-10-25 21:12:00,46.0,41.0,-100.00,NE,46,0.0,0.0,83,0.00,,,0.00,,2013-10-26 02:12:00,
2013-10-25 21:22:00,46.0,41.0,-100.00,NE,46,0.0,0.0,83,0.00,,,0.00,,2013-10-26 02:22:00,
2013-10-25 21:32:00,46.0,41.0,-100.00,NE,46,0.0,0.0,83,0.00,,,0.00,,2013-10-26 02:32:00,
2013-10-25 21:43:00,46.0,41.0,-100.00,NE,46,0.0,0.0,83,0.00,,,0.00,,2013-10-26 02:43:00,
2013-10-25 22:12:00,45.0,42.0,-100.00,North,10,1.0,2.0,88,0.00,,,0.00,,2013-10-26 03:12:00,
2013-10-25 22:22:00,45.0,42.0,-100.00,North,10,1.0,2.0,88,0.00,,,0.00,,2013-10-26 03:22:00,
2013-10-25 22:35:00,45.0,42.0,-100.00,North,10,1.0,2.0,88,0.00,,,0.00,,2013-10-26 03:35:00,
2013-10-25 22:44:00,45.0,42.0,-100.00,North,10,1.0,2.0,88,0.00,,,0.00,,2013-10-26 03:44:00,
2013-10-25 23:14:00,44.0,40.0,-100.00,West,260,0.0,2.0,85,0.00,,,0.00,,2013-10-26 04:14:00,
2013-10-25 23:24:00,44.0,40.0,-100.00,West,260,0.0,2.0,85,0.00,,,0.00,,2013-10-26 04:24:00,
2013-10-25 23:33:00,44.0,40.0,-100.00,West,260,0.0,2.0,85,0.00,,,0.00,,2013-10-26 04:33:00,
2013-10-25 23:44:00,44.0,40.0,-100.00,West,260,0.0,2.0,85,0.00,,,0.00,,2013-10-26 04:44:00,